Volver al catálogo

STARLINK-3961

ActivoComunicacionesVLEO
NORAD 52637·PAYLOAD·🇺🇸 United States

Lanzado May 14, 2022 desde Cape Canaveral Space Force Station

Loading…

Próximos Pases (próximas 24 horas)

TLE

ActualizadoSource: CelesTrak SupGP

Época: Sep 14, 2026, 20:52 UTC

1 52637C 22052AR  26257.86993056 -.00021769  00000+0 -70022-3 0  2579
2 52637  53.1568 117.2181 0001366  84.3462  34.2026 15.31704733    19

Sigue STARLINK-3961 en tiempo real con AllMySat

Download on the App Store